Regional Weather Roundup
Issued by NWS Charleston, SC

Current Version | Previous Version | Graphics & Text | Print | Product List | Glossary On
Versions: 1 2 3 4 5 6 7 8 9 10 11 12 13 14 15 16 17 18 19 20 21 22 23 24 25 26 27 28 29 30 31 32 33 34 35 36 37 38 39 40 41 42 43 44 45 46 47 48 49 50
000
ASUS42 KCHS 200510
RWRCHS
REGIONAL WEATHER ROUNDUP
NATIONAL WEATHER SERVICE CHARLESTON SC
1200 AM EST SAT DEC 20 2014

NOTE: "FAIR" INDICATES FEW OR NO CLOUDS BELOW 12,000 FEET WITH NO
SIGNIFICANT WEATHER AND/OR OBSTRUCTIONS TO VISIBILITY.

NOT ALL STATIONS ARE QUALITY CONTROLLED BY THE NATIONAL
WEATHER SERVICE. USE DATA WITH CAUTION...ESPECIALLY
DEWPOINT OBSERVATIONS.

SCZ027-030-031-034>040-042>050-200600-
...SOUTHEAST SOUTH CAROLINA...

CITY           SKY/WX    TMP DP  RH WIND       PRES   REMARKS
N CHARLESTON   CLOUDY    50  42  74 CALM      30.17R
WATERFRONT PRK   N/A     52 N/A N/A N5          N/A
MOUNT PLEASANT FAIR      48  45  87 CALM      30.16R
PINOPOLIS        N/A     52  43  71 VRB2      30.07S
MONCKS CORNER  FAIR      50  43  76 CALM      30.17R
SUMMERVILLE    NOT AVBL
BEAUFORT MCAS  CLOUDY    52  48  86 CALM      30.17R
BEAUFORT ARPT  FAIR      52  50  93 CALM      30.16S
HILTON HEAD IS CLOUDY    52  52 100 CALM      30.17S
WALTERBORO     CLOUDY    50 N/A N/A CALM      30.18R
ALLENDALE      CLOUDY    48  46  93 CALM      30.16S

...SOUTHERN MIDLANDS AND PEE DEE...

CITY           SKY/WX    TMP DP  RH WIND       PRES   REMARKS
GEORGETOWN     NOT AVBL
KINGSTREE      NOT AVBL
ORANGEBURG     CLOUDY    50  42  74 CALM      30.18R
BARNWELL         N/A     50  46  87 CALM      30.17S
AIKEN          CLOUDY    48  43  81 E3        30.19F
MANNING        NOT AVBL
COLUMBIA       CLOUDY    48  40  73 CALM      30.18R
SUMTER         CLOUDY    46  36  69 CALM      30.17R
FLORENCE       CLOUDY    46  33  60 NE7       30.18S
MYRTLE BEACH   MOCLDY    46  41  81 NE5       30.19R
N MYRTLE BEACH MOCLDY    44  39  82 NE5       30.19R

$$

GAZ063-065-086>088-099>101-113>116-118-119-134>141-150-200600-
...SOUTHEAST GEORGIA...

CITY           SKY/WX    TMP DP  RH WIND       PRES   REMARKS
SAVANNAH ARPT  CLOUDY    52  47  83 CALM      30.15F
HUNTER AAF     CLOUDY    51  48  88 SE1       30.13F
FORT STEWART   LGT RAIN  50  46  87 CALM      30.12F
STATESBORO     CLOUDY    48  48 100 CALM      30.14F
SYLVANIA       CLOUDY    49  47  94 CALM      30.16F
CLAXTON        CLOUDY    46  46 100 CALM      30.15S

...CSRA...CENTRAL AND FAR SOUTHEAST GEORGIA...

CITY           SKY/WX    TMP DP  RH WIND       PRES   REMARKS
THOMSON        CLOUDY    49  46  92 CALM      30.20R
AUGUSTA-BUSH   CLOUDY    48  43  82 CALM      30.16R
AUGUSTA-DANIEL CLOUDY    53  43  68 SE6       30.16R
SWAINSBORO     LGT RAIN  50  50 100 CALM      30.15S
VIDALIA        CLOUDY    50  46  87 CALM      30.14R
EASTMAN        CLOUDY    48  48 100 CALM      30.17R
HAZLEHURST     CLOUDY    54  47  78 CALM      30.12S
ALMA           CLOUDY    52  45  77 CALM      30.13S
WAYCROSS       CLOUDY    55  52  89 CALM      30.13R
JESUP          LGT RAIN  52  50  93 CALM      30.13F
BAXLEY         CLOUDY    54  46  76 CALM      30.12F
BRUNSWICK      CLOUDY    52  48  87 CALM      30.14F
SAINT SIMONS   LGT RAIN  54  50  86 N5        30.13F

$$

SCZ027-028-034-036>038-045-046-048>050-GAZ119-141-200600-
...LAKE AND SUPPLEMENTAL COASTAL OBSERVATIONS...

STATION/POSITION TIME  TEMP    WIND        PRES    WAVE   SWELL
                       AIR SEA DIR/SP/G            HT/PER HT/PER/DIR
                 (UTC) (F)     (DEG/KT/KT) (MB)    (FT/S) (FT/S/D)
UPR LAKE MARION  NOT AVBL
WINYAH BAY       0400   49      20/  3     1021.0S
LAKE MURRAY      0400   50      CALM  /  1 1020.7S
ACE BASIN NERRS  0400   49        CALM     1020.0S
FORT PULASKI     0500   52 56  340/  5/  6 1021.4S
SAPELO ISLAND    0400   52      40/  3     1020.0F

$$

ANZ835-935-AMZ111-154-330-350-352-354-370-450-454-472-200600-
...C-MAN AND BUOY OBSERVATIONS...

STATION/POSITION TIME  TEMP    WIND        PRES    WAVE   SWELL
                       AIR SEA DIR/SP/G            HT/PER HT/PER/DIR
                 (UTC) (F)     (DEG/KT/KT) (MB)    (FT/S) (FT/S/D)
BUOY 41004       0500   65 68   70/  6/ 10 1020.0F   2/10   2/10
BUOY 41008       0500   58 57   20/  4/  4 1020.8R   1/10   2/110/10
FOLLY BEACH CMAN 0400   55      50/  9/ 10 1021.3S
CAPERS NEARSHORE 0400   56      70/ 10/ 14   N/A
FRIPP NEARSHORE  NOT AVBL


STATION/POSITION TIME  TEMP    WIND        PRES    WAVE   SWELL
                       AIR SEA DIR/SP/G            HT/PER HT/PER/DIR
                 (UTC) (F)     (DEG/KT/KT) (MB)    (FT/S) (FT/S/D)
5E ST. MARYS GA  0500      61                N/A     1/11
FRYING PAN BUOY  0500   57 60   70/ 10/ 16 1022.4S   2/10   2/110/10
BUOY 41025       0500   46                 1023.5R   3/ 6
CAPE LOOKOUT NC  0400   46      20/  7/  8 1022.9R
BUOY 41002       0420   66 72   30/  6/  8 1020.7R   2/11   2/ 90/11
BUOY 41010       0500   71 76  100/  4/  6 1019.6R   2/11   2/ 80/11
ST AUGUSTINE FL  0500   60     330/  5/  5 1020.1R


$$


USA.gov is the U.S. government's official web portal to all federal, state and local government web resources and services.